Year,Month,Day,Hour,Minute,Value (Times are PST for temperature in C)
2020,05,05,00,00,7.80
2020,05,05,00,01,7.80
2020,05,05,00,02,7.80
2020,05,05,00,03,7.70
2020,05,05,00,04,7.70
2020,05,05,00,05,7.60
2020,05,05,00,06,7.60
2020,05,05,00,07,7.60
2020,05,05,00,08,7.60
2020,05,05,00,09,7.70
2020,05,05,00,10,7.70
2020,05,05,00,11,7.70
2020,05,05,00,12,7.70
2020,05,05,00,13,7.60
2020,05,05,00,14,7.50
2020,05,05,00,15,7.50
2020,05,05,00,16,7.40
2020,05,05,00,17,7.40
2020,05,05,00,18,7.40
2020,05,05,00,19,7.40
2020,05,05,00,20,7.30
2020,05,05,00,21,7.30
2020,05,05,00,22,7.30
2020,05,05,00,23,7.30
2020,05,05,00,24,7.30
2020,05,05,00,25,7.20
2020,05,05,00,26,7.20
2020,05,05,00,27,7.20
2020,05,05,00,28,7.10
2020,05,05,00,29,7.10
2020,05,05,00,30,7.00
2020,05,05,00,31,7.00
2020,05,05,00,32,7.00
2020,05,05,00,33,7.00
2020,05,05,00,34,7.00
2020,05,05,00,35,7.00
2020,05,05,00,36,7.00
2020,05,05,00,37,6.90
2020,05,05,00,38,6.90
2020,05,05,00,39,6.90
2020,05,05,00,40,7.00
2020,05,05,00,41,7.10
2020,05,05,00,42,7.20
2020,05,05,00,43,7.30
2020,05,05,00,44,7.30
2020,05,05,00,45,7.40
2020,05,05,00,46,7.50
2020,05,05,00,47,7.60
2020,05,05,00,48,7.60
2020,05,05,00,49,7.70
2020,05,05,00,50,7.70
2020,05,05,00,51,7.80
2020,05,05,00,52,7.80
2020,05,05,00,53,7.80
2020,05,05,00,54,7.70
2020,05,05,00,55,7.70
2020,05,05,00,56,7.60
2020,05,05,00,57,7.50
2020,05,05,00,58,7.50
2020,05,05,00,59,7.50
2020,05,05,01,00,7.50
2020,05,05,01,01,7.50
2020,05,05,01,02,7.50
2020,05,05,01,03,7.50
2020,05,05,01,04,7.40
2020,05,05,01,05,7.30
2020,05,05,01,06,7.20
2020,05,05,01,07,7.10
2020,05,05,01,08,7.00
2020,05,05,01,09,6.90
2020,05,05,01,10,6.90
2020,05,05,01,11,6.80
2020,05,05,01,12,6.80
2020,05,05,01,13,6.80
2020,05,05,01,14,6.70
2020,05,05,01,15,6.80
2020,05,05,01,16,6.80
2020,05,05,01,17,6.80
2020,05,05,01,18,6.80
2020,05,05,01,19,6.80
2020,05,05,01,20,6.80
2020,05,05,01,21,6.80
2020,05,05,01,22,6.80
2020,05,05,01,23,6.80
2020,05,05,01,24,6.80
2020,05,05,01,25,6.90
2020,05,05,01,26,6.90
2020,05,05,01,27,6.90
2020,05,05,01,28,6.90
2020,05,05,01,29,6.90
2020,05,05,01,30,6.90
2020,05,05,01,31,6.90
2020,05,05,01,32,6.80
2020,05,05,01,33,6.80
2020,05,05,01,34,6.70
2020,05,05,01,35,6.70
2020,05,05,01,36,6.60
2020,05,05,01,37,6.50
2020,05,05,01,38,6.50
2020,05,05,01,39,6.40
2020,05,05,01,40,6.40
2020,05,05,01,41,6.40
2020,05,05,01,42,6.40
2020,05,05,01,43,6.40
2020,05,05,01,44,6.40
2020,05,05,01,45,6.40
2020,05,05,01,46,6.40
2020,05,05,01,47,6.40
2020,05,05,01,48,6.40
2020,05,05,01,49,6.40
2020,05,05,01,50,6.50
2020,05,05,01,51,6.50
2020,05,05,01,52,6.50
2020,05,05,01,53,6.50
2020,05,05,01,54,6.50
2020,05,05,01,55,6.60
2020,05,05,01,56,6.60
2020,05,05,01,57,6.60
2020,05,05,01,58,6.70
2020,05,05,01,59,6.70
2020,05,05,02,00,6.70
2020,05,05,02,01,6.70
2020,05,05,02,02,6.70
2020,05,05,02,03,6.70
2020,05,05,02,04,6.70
2020,05,05,02,05,6.60
2020,05,05,02,06,6.60
2020,05,05,02,07,6.60
2020,05,05,02,08,6.50
2020,05,05,02,09,6.50
2020,05,05,02,10,6.40
2020,05,05,02,11,6.40
2020,05,05,02,12,6.40
2020,05,05,02,13,6.40
2020,05,05,02,14,6.30
2020,05,05,02,15,6.30
2020,05,05,02,16,6.30
2020,05,05,02,17,6.30
2020,05,05,02,18,6.30
2020,05,05,02,19,6.20
2020,05,05,02,20,6.20
2020,05,05,02,21,6.10
2020,05,05,02,22,6.00
2020,05,05,02,23,5.90
2020,05,05,02,24,5.90
2020,05,05,02,25,5.80
2020,05,05,02,26,5.80
2020,05,05,02,27,5.70
2020,05,05,02,28,5.70
2020,05,05,02,29,5.60
2020,05,05,02,30,5.60
2020,05,05,02,31,5.50
2020,05,05,02,32,5.50
2020,05,05,02,33,5.50
2020,05,05,02,34,5.40
2020,05,05,02,35,5.40
2020,05,05,02,36,5.40
2020,05,05,02,37,5.50
2020,05,05,02,38,5.50
2020,05,05,02,39,5.50
2020,05,05,02,40,5.60
2020,05,05,02,41,5.60
2020,05,05,02,42,5.60
2020,05,05,02,43,5.70
2020,05,05,02,44,5.70
2020,05,05,02,45,5.70
2020,05,05,02,46,5.80
2020,05,05,02,47,5.80
2020,05,05,02,48,5.80
2020,05,05,02,49,5.80
2020,05,05,02,50,5.80
2020,05,05,02,51,5.90
2020,05,05,02,52,5.90
2020,05,05,02,53,5.90
2020,05,05,02,54,5.90
2020,05,05,02,55,5.90
2020,05,05,02,56,5.90
2020,05,05,02,57,6.00
2020,05,05,02,58,6.00
2020,05,05,02,59,6.10
2020,05,05,03,00,6.10
2020,05,05,03,01,6.10
2020,05,05,03,02,6.10
2020,05,05,03,03,6.10
2020,05,05,03,04,6.10
2020,05,05,03,05,6.10
2020,05,05,03,06,6.00
2020,05,05,03,07,6.00
2020,05,05,03,08,5.90
2020,05,05,03,09,5.80
2020,05,05,03,10,5.80
2020,05,05,03,11,5.70
2020,05,05,03,12,5.60
2020,05,05,03,13,5.60
2020,05,05,03,14,5.50
2020,05,05,03,15,5.40
2020,05,05,03,16,5.40
2020,05,05,03,17,5.40
2020,05,05,03,18,5.30
2020,05,05,03,19,5.30
2020,05,05,03,20,5.30
2020,05,05,03,21,5.20
2020,05,05,03,22,5.20
2020,05,05,03,23,5.20
2020,05,05,03,24,5.20
2020,05,05,03,25,5.20
2020,05,05,03,26,5.20
2020,05,05,03,27,5.20
2020,05,05,03,28,5.20
2020,05,05,03,29,5.20
2020,05,05,03,30,5.20
2020,05,05,03,31,5.20
2020,05,05,03,32,5.30
2020,05,05,03,33,5.30
2020,05,05,03,34,5.30
2020,05,05,03,35,5.30
2020,05,05,03,36,5.30
2020,05,05,03,37,5.30
2020,05,05,03,38,5.30
2020,05,05,03,39,5.30
2020,05,05,03,40,5.30
2020,05,05,03,41,5.30
2020,05,05,03,42,5.30
2020,05,05,03,43,5.40
2020,05,05,03,44,5.40
2020,05,05,03,45,5.40
2020,05,05,03,46,5.40
2020,05,05,03,47,5.30
2020,05,05,03,48,5.30
2020,05,05,03,49,5.30
2020,05,05,03,50,5.30
2020,05,05,03,51,5.40
2020,05,05,03,52,5.40
2020,05,05,03,53,5.50
2020,05,05,03,54,5.60
2020,05,05,03,55,5.70
2020,05,05,03,56,5.70
2020,05,05,03,57,5.80
2020,05,05,03,58,5.80
2020,05,05,03,59,5.80
2020,05,05,04,00,5.80
2020,05,05,04,01,5.80
2020,05,05,04,02,5.90
2020,05,05,04,03,5.90
2020,05,05,04,04,5.90
2020,05,05,04,05,6.00
2020,05,05,04,06,6.00
2020,05,05,04,07,5.90
2020,05,05,04,08,5.90
2020,05,05,04,09,5.80
2020,05,05,04,10,5.80
2020,05,05,04,11,5.80
2020,05,05,04,12,5.70
2020,05,05,04,13,5.70
2020,05,05,04,14,5.70
2020,05,05,04,15,5.60
2020,05,05,04,16,5.60
2020,05,05,04,17,5.60
2020,05,05,04,18,5.50
2020,05,05,04,19,5.50
2020,05,05,04,20,5.40
2020,05,05,04,21,5.30
2020,05,05,04,22,5.30
2020,05,05,04,23,5.20
2020,05,05,04,24,5.20
2020,05,05,04,25,5.10
2020,05,05,04,26,5.10
2020,05,05,04,27,5.10
2020,05,05,04,28,5.10
2020,05,05,04,29,5.10
2020,05,05,04,30,5.20
2020,05,05,04,31,5.20
2020,05,05,04,32,5.30
2020,05,05,04,33,5.40
2020,05,05,04,34,5.50
2020,05,05,04,35,5.50
2020,05,05,04,36,5.60
2020,05,05,04,37,5.60
2020,05,05,04,38,5.60
2020,05,05,04,39,5.60
2020,05,05,04,40,5.60
2020,05,05,04,41,5.60
2020,05,05,04,42,5.60
2020,05,05,04,43,5.50
2020,05,05,04,44,5.50
2020,05,05,04,45,5.40
2020,05,05,04,46,5.40
2020,05,05,04,47,5.30
2020,05,05,04,48,5.30
2020,05,05,04,49,5.20
2020,05,05,04,50,5.20
2020,05,05,04,51,5.20
2020,05,05,04,52,5.20
2020,05,05,04,53,5.10
2020,05,05,04,54,5.10
2020,05,05,04,55,5.10
2020,05,05,04,56,5.00
2020,05,05,04,57,5.00
2020,05,05,04,58,5.00
2020,05,05,04,59,4.90
2020,05,05,05,00,4.90
2020,05,05,05,01,4.90
2020,05,05,05,02,4.80
2020,05,05,05,03,4.80
2020,05,05,05,04,4.70
2020,05,05,05,05,4.70
2020,05,05,05,06,4.60
2020,05,05,05,07,4.60
2020,05,05,05,08,4.50
2020,05,05,05,09,4.50
2020,05,05,05,10,4.50
2020,05,05,05,11,4.40
2020,05,05,05,12,4.40
2020,05,05,05,13,4.40
2020,05,05,05,14,4.40
2020,05,05,05,15,4.40
2020,05,05,05,16,4.30
2020,05,05,05,17,4.30
2020,05,05,05,18,4.30
2020,05,05,05,19,4.30
2020,05,05,05,20,4.30
2020,05,05,05,21,4.20
2020,05,05,05,22,4.20
2020,05,05,05,23,4.10
2020,05,05,05,24,4.10
2020,05,05,05,25,4.10
2020,05,05,05,26,4.00
2020,05,05,05,27,4.00
2020,05,05,05,28,4.00
2020,05,05,05,29,3.90
2020,05,05,05,30,3.90
2020,05,05,05,31,3.90
2020,05,05,05,32,3.90
2020,05,05,05,33,3.90
2020,05,05,05,34,3.90
2020,05,05,05,35,3.90
2020,05,05,05,36,3.90
2020,05,05,05,37,3.90
2020,05,05,05,38,3.90
2020,05,05,05,39,3.90
2020,05,05,05,40,4.00
2020,05,05,05,41,4.00
2020,05,05,05,42,4.00
2020,05,05,05,43,4.10
2020,05,05,05,44,4.10
2020,05,05,05,45,4.10
2020,05,05,05,46,4.10
2020,05,05,05,47,4.20
2020,05,05,05,48,4.20
2020,05,05,05,49,4.30
2020,05,05,05,50,4.30
2020,05,05,05,51,4.30
2020,05,05,05,52,4.30
2020,05,05,05,53,4.30
2020,05,05,05,54,4.20
2020,05,05,05,55,4.20
2020,05,05,05,56,4.20
2020,05,05,05,57,4.10
2020,05,05,05,58,4.10
2020,05,05,05,59,4.10
2020,05,05,06,00,4.10
2020,05,05,06,01,4.10
2020,05,05,06,02,4.10
2020,05,05,06,03,4.10
2020,05,05,06,04,4.10
2020,05,05,06,05,4.10
2020,05,05,06,06,4.10
2020,05,05,06,07,4.10
2020,05,05,06,08,4.10
2020,05,05,06,09,4.10
2020,05,05,06,10,4.10
2020,05,05,06,11,4.10
2020,05,05,06,12,4.10
2020,05,05,06,13,4.10
2020,05,05,06,14,4.10
2020,05,05,06,15,4.10
2020,05,05,06,16,4.10
2020,05,05,06,17,4.10
2020,05,05,06,18,4.10
2020,05,05,06,19,4.10
2020,05,05,06,20,4.20
2020,05,05,06,21,4.20
2020,05,05,06,22,4.20
2020,05,05,06,23,4.20
2020,05,05,06,24,4.20
2020,05,05,06,25,4.30
2020,05,05,06,26,4.20
2020,05,05,06,27,4.30
2020,05,05,06,28,4.30
2020,05,05,06,29,4.30
2020,05,05,06,30,4.30
2020,05,05,06,31,4.30
2020,05,05,06,32,4.30
2020,05,05,06,33,4.40
2020,05,05,06,34,4.40
2020,05,05,06,35,4.40
2020,05,05,06,36,4.40
2020,05,05,06,37,4.40
2020,05,05,06,38,4.50
2020,05,05,06,39,4.50
2020,05,05,06,40,4.60
2020,05,05,06,41,4.60
2020,05,05,06,42,4.60
2020,05,05,06,43,4.60
2020,05,05,06,44,4.60
2020,05,05,06,45,4.60
2020,05,05,06,46,4.70
2020,05,05,06,47,4.70
2020,05,05,06,48,4.70
2020,05,05,06,49,4.70
2020,05,05,06,50,4.70
2020,05,05,06,51,4.70
2020,05,05,06,52,4.80
2020,05,05,06,53,4.80
2020,05,05,06,54,4.80
2020,05,05,06,55,4.80
2020,05,05,06,56,4.80
2020,05,05,06,57,4.80
2020,05,05,06,58,4.80
2020,05,05,06,59,4.80
2020,05,05,07,00,4.80
2020,05,05,07,01,4.80
2020,05,05,07,02,4.90
2020,05,05,07,03,4.90
2020,05,05,07,04,5.00
2020,05,05,07,05,5.00
2020,05,05,07,06,5.10
2020,05,05,07,07,5.10
2020,05,05,07,08,5.10
2020,05,05,07,09,5.10
2020,05,05,07,10,5.20
2020,05,05,07,11,5.20
2020,05,05,07,12,5.30
2020,05,05,07,13,5.30
2020,05,05,07,14,5.30
2020,05,05,07,15,5.40
2020,05,05,07,16,5.40
2020,05,05,07,17,5.40
2020,05,05,07,18,5.50
2020,05,05,07,19,5.60
2020,05,05,07,20,5.60
2020,05,05,07,21,5.70
2020,05,05,07,22,5.70
2020,05,05,07,23,5.80
2020,05,05,07,24,5.80
2020,05,05,07,25,5.90
2020,05,05,07,26,5.90
2020,05,05,07,27,5.90
2020,05,05,07,28,6.00
2020,05,05,07,29,6.00
2020,05,05,07,30,6.10
2020,05,05,07,31,6.10
2020,05,05,07,32,6.10
2020,05,05,07,33,6.20
2020,05,05,07,34,6.20
2020,05,05,07,35,6.20
2020,05,05,07,36,6.30
2020,05,05,07,37,6.40
2020,05,05,07,38,6.50
2020,05,05,07,39,6.50
2020,05,05,07,40,6.60
2020,05,05,07,41,6.70
2020,05,05,07,42,6.70
2020,05,05,07,43,6.80
2020,05,05,07,44,6.80
2020,05,05,07,45,6.90
2020,05,05,07,46,6.90
2020,05,05,07,47,7.00
2020,05,05,07,48,7.10
2020,05,05,07,49,7.20
2020,05,05,07,50,7.20
2020,05,05,07,51,7.30
2020,05,05,07,52,7.40
2020,05,05,07,53,7.50
2020,05,05,07,54,7.60
2020,05,05,07,55,7.70
2020,05,05,07,56,7.70
2020,05,05,07,57,7.70
2020,05,05,07,58,7.70
2020,05,05,07,59,7.70
2020,05,05,08,00,7.70
2020,05,05,08,01,7.70
2020,05,05,08,02,7.70
2020,05,05,08,03,7.70
2020,05,05,08,04,7.70
2020,05,05,08,05,7.80
2020,05,05,08,06,7.90
2020,05,05,08,07,8.00
2020,05,05,08,08,8.10
2020,05,05,08,09,8.20
2020,05,05,08,10,8.20
2020,05,05,08,11,8.30
2020,05,05,08,12,8.30
2020,05,05,08,13,8.40
2020,05,05,08,14,8.40
2020,05,05,08,15,8.50
2020,05,05,08,16,8.60
2020,05,05,08,17,8.70
2020,05,05,08,18,8.70
2020,05,05,08,19,8.80
2020,05,05,08,20,8.90
2020,05,05,08,21,8.90
2020,05,05,08,22,9.10
2020,05,05,08,23,9.20
2020,05,05,08,24,9.30
2020,05,05,08,25,9.40
2020,05,05,08,26,9.50
2020,05,05,08,27,9.60
2020,05,05,08,28,9.70
2020,05,05,08,29,9.70
2020,05,05,08,30,9.80
2020,05,05,08,31,9.90
2020,05,05,08,32,10.00
2020,05,05,08,33,10.10
2020,05,05,08,34,10.20
2020,05,05,08,35,10.30
2020,05,05,08,36,10.30
2020,05,05,08,37,10.40
2020,05,05,08,38,10.40
2020,05,05,08,39,10.50
2020,05,05,08,40,10.50
2020,05,05,08,41,10.60
2020,05,05,08,42,10.60
2020,05,05,08,43,10.60
2020,05,05,08,44,10.70
2020,05,05,08,45,10.70
2020,05,05,08,46,10.80
2020,05,05,08,47,10.80
2020,05,05,08,48,10.90
2020,05,05,08,49,10.90
2020,05,05,08,50,10.90
2020,05,05,08,51,10.90
2020,05,05,08,52,10.90
2020,05,05,08,53,11.00
2020,05,05,08,54,11.00
2020,05,05,08,55,11.00
2020,05,05,08,56,11.00
2020,05,05,08,57,11.00
2020,05,05,08,58,11.00
2020,05,05,08,59,11.00
2020,05,05,09,00,11.00
2020,05,05,09,01,10.90
2020,05,05,09,02,11.00
2020,05,05,09,03,11.00
2020,05,05,09,04,11.10
2020,05,05,09,05,11.10
2020,05,05,09,06,11.20
2020,05,05,09,07,11.30
2020,05,05,09,08,11.30
2020,05,05,09,09,11.40
2020,05,05,09,10,11.50
2020,05,05,09,11,11.60
2020,05,05,09,12,11.60
2020,05,05,09,13,11.70
2020,05,05,09,14,11.70
2020,05,05,09,15,11.80
2020,05,05,09,16,11.80
2020,05,05,09,17,11.80
2020,05,05,09,18,11.90
2020,05,05,09,19,12.00
2020,05,05,09,20,12.00
2020,05,05,09,21,12.00
2020,05,05,09,22,12.10
2020,05,05,09,23,12.10
2020,05,05,09,24,12.10
2020,05,05,09,25,12.10
2020,05,05,09,26,12.10
2020,05,05,09,27,12.10
2020,05,05,09,28,12.10
2020,05,05,09,29,12.10
2020,05,05,09,30,12.20
2020,05,05,09,31,12.20
2020,05,05,09,32,12.20
2020,05,05,09,33,12.30
2020,05,05,09,34,12.30
2020,05,05,09,35,12.30
2020,05,05,09,36,12.30
2020,05,05,09,37,12.30
2020,05,05,09,38,12.30
2020,05,05,09,39,12.30
2020,05,05,09,40,12.20
2020,05,05,09,41,12.20
2020,05,05,09,42,12.20
2020,05,05,09,43,12.20
2020,05,05,09,44,12.20
2020,05,05,09,45,12.20
2020,05,05,09,46,12.10
2020,05,05,09,47,12.20
2020,05,05,09,48,12.20
2020,05,05,09,49,12.30
2020,05,05,09,50,12.30
2020,05,05,09,51,12.40
2020,05,05,09,52,12.30
2020,05,05,09,53,12.30
2020,05,05,09,54,12.40
2020,05,05,09,55,12.40
2020,05,05,09,56,12.40
2020,05,05,09,57,12.50
2020,05,05,09,58,12.50
2020,05,05,09,59,12.60
2020,05,05,10,00,12.60
2020,05,05,10,01,12.60
2020,05,05,10,02,12.60
2020,05,05,10,03,12.60
2020,05,05,10,04,12.60
2020,05,05,10,05,12.60
2020,05,05,10,06,12.70
2020,05,05,10,07,12.70
2020,05,05,10,08,12.70
2020,05,05,10,09,12.80
2020,05,05,10,10,12.80
2020,05,05,10,11,12.80
2020,05,05,10,12,12.80
2020,05,05,10,13,12.90
2020,05,05,10,14,12.90
2020,05,05,10,15,12.90
2020,05,05,10,16,12.90
2020,05,05,10,17,12.90
2020,05,05,10,18,12.90
2020,05,05,10,19,13.00
2020,05,05,10,20,12.90
2020,05,05,10,21,13.00
2020,05,05,10,22,13.00
2020,05,05,10,23,13.10
2020,05,05,10,24,13.10
2020,05,05,10,25,13.10
2020,05,05,10,26,13.10
2020,05,05,10,27,13.10
2020,05,05,10,28,13.10
2020,05,05,10,29,13.20
2020,05,05,10,30,13.20
2020,05,05,10,31,13.20
2020,05,05,10,32,13.20
2020,05,05,10,33,13.20
2020,05,05,10,34,13.20
2020,05,05,10,35,13.20
2020,05,05,10,36,13.20
2020,05,05,10,37,13.20
2020,05,05,10,38,13.10
2020,05,05,10,39,13.00
2020,05,05,10,40,13.00
2020,05,05,10,41,12.90
2020,05,05,10,42,12.80
2020,05,05,10,43,12.80
2020,05,05,10,44,12.80
2020,05,05,10,45,12.80
2020,05,05,10,46,12.70
2020,05,05,10,47,12.70
2020,05,05,10,48,12.70
2020,05,05,10,49,12.70
2020,05,05,10,50,12.70
2020,05,05,10,51,12.70
2020,05,05,10,52,12.70
2020,05,05,10,53,12.60
2020,05,05,10,54,12.60
2020,05,05,10,55,12.60
2020,05,05,10,56,12.60
2020,05,05,10,57,12.70
2020,05,05,10,58,12.70
2020,05,05,10,59,12.80
2020,05,05,11,00,12.80
2020,05,05,11,01,12.90
2020,05,05,11,02,13.00
2020,05,05,11,03,13.00
2020,05,05,11,04,13.10
2020,05,05,11,05,13.20
2020,05,05,11,06,13.30
2020,05,05,11,07,13.40
2020,05,05,11,08,13.50
2020,05,05,11,09,13.60
2020,05,05,11,10,13.60
2020,05,05,11,11,13.60
2020,05,05,11,12,13.60
2020,05,05,11,13,13.60
2020,05,05,11,14,13.60
2020,05,05,11,15,13.60
2020,05,05,11,16,13.60
2020,05,05,11,17,13.60
2020,05,05,11,18,13.70
2020,05,05,11,19,13.70
2020,05,05,11,20,13.80
2020,05,05,11,21,13.80
2020,05,05,11,22,13.90
2020,05,05,11,23,13.90
2020,05,05,11,24,14.00
2020,05,05,11,25,14.00
2020,05,05,11,26,14.10
2020,05,05,11,27,14.10
2020,05,05,11,28,14.10
2020,05,05,11,29,14.10
2020,05,05,11,30,14.00
2020,05,05,11,31,14.00
2020,05,05,11,32,13.90
2020,05,05,11,33,13.80
2020,05,05,11,34,13.80
2020,05,05,11,35,13.90
2020,05,05,11,36,13.90
2020,05,05,11,37,13.90
2020,05,05,11,38,13.90
2020,05,05,11,39,14.00
2020,05,05,11,40,13.90
2020,05,05,11,41,13.90
2020,05,05,11,42,13.90
2020,05,05,11,43,14.00
2020,05,05,11,44,14.00
2020,05,05,11,45,14.00
2020,05,05,11,46,14.10
2020,05,05,11,47,14.10
2020,05,05,11,48,14.10
2020,05,05,11,49,14.10
2020,05,05,11,50,14.20
2020,05,05,11,51,14.20
2020,05,05,11,52,14.20
2020,05,05,11,53,14.20
2020,05,05,11,54,14.20
2020,05,05,11,55,14.20
2020,05,05,11,56,14.10
2020,05,05,11,57,14.10
2020,05,05,11,58,14.20
2020,05,05,11,59,14.20
2020,05,05,12,00,14.30
2020,05,05,12,01,14.30
2020,05,05,12,02,14.30
2020,05,05,12,03,14.30
2020,05,05,12,04,14.30
2020,05,05,12,05,14.30
2020,05,05,12,06,14.40
2020,05,05,12,07,14.40
2020,05,05,12,08,14.40
2020,05,05,12,09,14.40
2020,05,05,12,10,14.40
2020,05,05,12,11,14.40
2020,05,05,12,12,14.40
2020,05,05,12,13,14.50
2020,05,05,12,14,14.50
2020,05,05,12,15,14.40
2020,05,05,12,16,14.40
2020,05,05,12,17,14.40
2020,05,05,12,18,14.40
2020,05,05,12,19,14.40
2020,05,05,12,20,14.40
2020,05,05,12,21,14.40
2020,05,05,12,22,14.40
2020,05,05,12,23,14.50
2020,05,05,12,24,14.60
2020,05,05,12,25,14.70
2020,05,05,12,26,14.70
2020,05,05,12,27,14.60
2020,05,05,12,28,14.60
2020,05,05,12,29,14.60
2020,05,05,12,30,14.60
2020,05,05,12,31,14.60
2020,05,05,12,32,14.60
2020,05,05,12,33,14.50
2020,05,05,12,34,14.50
2020,05,05,12,35,14.40
2020,05,05,12,36,14.40
2020,05,05,12,37,14.40
2020,05,05,12,38,14.50
2020,05,05,12,39,14.50
2020,05,05,12,40,14.60
2020,05,05,12,41,14.60
2020,05,05,12,42,14.70
2020,05,05,12,43,14.80
2020,05,05,12,44,14.80
2020,05,05,12,45,14.90
2020,05,05,12,46,14.90
2020,05,05,12,47,14.90
2020,05,05,12,48,15.10
2020,05,05,12,49,15.20
2020,05,05,12,50,15.30
2020,05,05,12,51,15.40
2020,05,05,12,52,15.50
2020,05,05,12,53,15.50
2020,05,05,12,54,15.60
2020,05,05,12,55,15.50
2020,05,05,12,56,15.40
2020,05,05,12,57,15.40
2020,05,05,12,58,15.30
2020,05,05,12,59,15.30
2020,05,05,13,00,15.30
2020,05,05,13,01,15.40
2020,05,05,13,02,15.40
2020,05,05,13,03,15.50
2020,05,05,13,04,15.50
2020,05,05,13,05,15.50
2020,05,05,13,06,15.50
2020,05,05,13,07,15.50
2020,05,05,13,08,15.50
2020,05,05,13,09,15.50
2020,05,05,13,10,15.60
2020,05,05,13,11,15.60
2020,05,05,13,12,15.70
2020,05,05,13,13,15.80
2020,05,05,13,14,15.90
2020,05,05,13,15,15.90
2020,05,05,13,16,15.90
2020,05,05,13,17,15.90
2020,05,05,13,18,15.80
2020,05,05,13,19,15.90
2020,05,05,13,20,15.90
2020,05,05,13,21,15.90
2020,05,05,13,22,15.90
2020,05,05,13,23,16.00
2020,05,05,13,24,16.00
2020,05,05,13,25,15.90
2020,05,05,13,26,16.00
2020,05,05,13,27,16.00
2020,05,05,13,28,16.00
2020,05,05,13,29,15.90
2020,05,05,13,30,15.90
2020,05,05,13,31,15.90
2020,05,05,13,32,15.90
2020,05,05,13,33,15.90
2020,05,05,13,34,15.90
2020,05,05,13,35,16.00
2020,05,05,13,36,16.00
2020,05,05,13,37,16.10
2020,05,05,13,38,16.10
2020,05,05,13,39,16.10
2020,05,05,13,40,16.10
2020,05,05,13,41,16.10
2020,05,05,13,42,16.10
2020,05,05,13,43,16.10
2020,05,05,13,44,16.10
2020,05,05,13,45,16.10
2020,05,05,13,46,16.20
2020,05,05,13,47,16.20
2020,05,05,13,48,16.30
2020,05,05,13,49,16.30
2020,05,05,13,50,16.30
2020,05,05,13,51,16.30
2020,05,05,13,52,16.30
2020,05,05,13,53,16.30
2020,05,05,13,54,16.40
2020,05,05,13,55,16.40
2020,05,05,13,56,16.40
2020,05,05,13,57,16.40
2020,05,05,13,58,16.40
2020,05,05,13,59,16.30
2020,05,05,14,00,16.20
2020,05,05,14,01,16.10
2020,05,05,14,02,16.00
2020,05,05,14,03,16.00
2020,05,05,14,04,16.00
2020,05,05,14,05,16.00
2020,05,05,14,06,15.90
2020,05,05,14,07,15.90
2020,05,05,14,08,15.90
2020,05,05,14,09,15.90
2020,05,05,14,10,15.90
2020,05,05,14,11,15.90
2020,05,05,14,12,15.80
2020,05,05,14,13,15.60
2020,05,05,14,14,15.60
2020,05,05,14,15,15.60
2020,05,05,14,16,15.60
2020,05,05,14,17,15.60
2020,05,05,14,18,15.60
2020,05,05,14,19,15.60
2020,05,05,14,20,15.70
2020,05,05,14,21,15.60
2020,05,05,14,22,15.60
2020,05,05,14,23,15.60
2020,05,05,14,24,15.60
2020,05,05,14,25,15.60
2020,05,05,14,26,15.60
2020,05,05,14,27,15.60
2020,05,05,14,28,15.60
2020,05,05,14,29,15.60
2020,05,05,14,30,15.60
2020,05,05,14,31,15.60
2020,05,05,14,32,15.60
2020,05,05,14,33,15.60
2020,05,05,16,32,16.90
2020,05,05,16,33,16.90
2020,05,05,16,34,16.90
2020,05,05,16,35,16.90
2020,05,05,16,36,16.90
2020,05,05,16,37,16.90
2020,05,05,16,38,17.00
2020,05,05,16,39,17.00
2020,05,05,16,40,17.00
2020,05,05,16,41,17.00
2020,05,05,16,42,16.90
2020,05,05,16,43,16.90
2020,05,05,16,44,16.90
2020,05,05,16,45,16.90
2020,05,05,16,46,16.80
2020,05,05,16,47,16.80
2020,05,05,16,48,16.80
2020,05,05,16,49,16.80
2020,05,05,16,50,16.80
2020,05,05,16,51,16.80
2020,05,05,16,52,16.80
2020,05,05,16,53,16.80
2020,05,05,16,54,16.70
2020,05,05,16,55,16.70
2020,05,05,16,56,16.60
2020,05,05,16,57,16.60
2020,05,05,16,58,16.70
2020,05,05,16,59,16.70
2020,05,05,17,00,16.70
2020,05,05,17,01,16.70
2020,05,05,17,02,16.70
2020,05,05,17,03,16.80
2020,05,05,17,04,16.80
2020,05,05,17,05,16.70
2020,05,05,17,06,16.70
2020,05,05,17,07,16.70
2020,05,05,17,08,16.70
2020,05,05,17,09,16.70
2020,05,05,17,10,16.70
2020,05,05,17,11,16.70
2020,05,05,17,12,16.80
2020,05,05,17,13,16.80
2020,05,05,17,14,16.80
2020,05,05,17,15,16.80
2020,05,05,17,16,16.80
2020,05,05,17,17,16.80
2020,05,05,17,18,16.80
2020,05,05,17,19,16.80
2020,05,05,17,20,16.90
2020,05,05,17,21,16.90
2020,05,05,17,22,16.90
2020,05,05,17,23,16.90
2020,05,05,17,24,16.90
2020,05,05,17,25,17.00
2020,05,05,17,26,17.00
2020,05,05,17,27,17.00
2020,05,05,17,28,17.00
2020,05,05,17,29,17.00
2020,05,05,17,30,17.00
2020,05,05,17,31,17.00
2020,05,05,17,32,17.00
2020,05,05,17,33,17.00
2020,05,05,17,34,17.00
2020,05,05,17,35,17.00
2020,05,05,17,36,17.00
2020,05,05,17,37,17.00
2020,05,05,17,38,17.00
2020,05,05,17,39,17.00
2020,05,05,17,40,17.10
2020,05,05,17,41,17.10
2020,05,05,17,42,17.10
2020,05,05,17,43,17.10
2020,05,05,17,44,17.10
2020,05,05,17,45,17.10
2020,05,05,17,46,17.10
2020,05,05,17,47,17.10
2020,05,05,17,48,17.10
2020,05,05,17,49,17.10
2020,05,05,17,50,17.10
2020,05,05,17,51,17.10
2020,05,05,17,52,17.10
2020,05,05,17,53,17.20
2020,05,05,17,54,17.20
2020,05,05,17,55,17.30
2020,05,05,17,56,17.30
2020,05,05,17,57,17.30
2020,05,05,17,58,17.30
2020,05,05,17,59,17.30
2020,05,05,18,00,17.20
2020,05,05,18,01,17.20
2020,05,05,18,02,17.20
2020,05,05,18,03,17.20
2020,05,05,18,04,17.20
2020,05,05,18,05,17.20
2020,05,05,18,06,17.10
2020,05,05,18,07,17.10
2020,05,05,18,08,17.10
2020,05,05,18,09,17.10
2020,05,05,18,10,17.00
2020,05,05,18,11,17.00
2020,05,05,18,12,16.90
2020,05,05,18,13,16.90
2020,05,05,18,14,16.80
2020,05,05,18,15,16.80
2020,05,05,18,16,16.70
2020,05,05,18,17,16.70
2020,05,05,18,18,16.60
2020,05,05,18,19,16.60
2020,05,05,18,20,16.60
2020,05,05,18,21,16.50
2020,05,05,18,22,16.40
2020,05,05,18,23,16.40
2020,05,05,18,24,16.40
2020,05,05,18,25,16.40
2020,05,05,18,26,16.30
2020,05,05,18,27,16.30
2020,05,05,18,28,16.30
2020,05,05,18,29,16.20
2020,05,05,18,30,16.20
2020,05,05,18,31,16.20
2020,05,05,18,32,16.20
2020,05,05,18,33,16.20
2020,05,05,18,34,16.20
2020,05,05,18,35,16.20
2020,05,05,18,36,16.30
2020,05,05,18,37,16.30
2020,05,05,18,38,16.30
2020,05,05,18,39,16.30
2020,05,05,18,40,16.30
2020,05,05,18,41,16.40
2020,05,05,18,42,16.40
2020,05,05,18,43,16.40
2020,05,05,18,44,16.40
2020,05,05,18,45,16.50
2020,05,05,18,46,16.50
2020,05,05,18,47,16.60
2020,05,05,18,48,16.60
2020,05,05,18,49,16.60
2020,05,05,18,50,16.60
2020,05,05,18,51,16.60
2020,05,05,18,52,16.60
2020,05,05,18,53,16.60
2020,05,05,18,54,16.60
2020,05,05,18,55,16.60
2020,05,05,18,56,16.60
2020,05,05,18,57,16.60
2020,05,05,18,58,16.60
2020,05,05,18,59,16.70
2020,05,05,19,00,16.70
2020,05,05,19,01,16.70
2020,05,05,19,02,16.60
2020,05,05,19,03,16.60
2020,05,05,19,04,16.60
2020,05,05,19,05,16.50
2020,05,05,19,06,16.50
2020,05,05,19,07,16.50
2020,05,05,19,08,16.50
2020,05,05,19,09,16.40
2020,05,05,19,10,16.40
2020,05,05,19,11,16.40
2020,05,05,19,12,16.40
2020,05,05,19,13,16.40
2020,05,05,19,14,16.30
2020,05,05,19,15,16.30
2020,05,05,19,16,16.30
2020,05,05,19,17,16.20
2020,05,05,19,18,16.20
2020,05,05,19,19,16.10
2020,05,05,19,20,16.10
2020,05,05,19,21,16.10
2020,05,05,19,22,16.00
2020,05,05,19,23,16.00
2020,05,05,19,24,16.00
2020,05,05,19,25,15.90
2020,05,05,19,26,15.90
2020,05,05,19,27,15.80
2020,05,05,19,28,15.80
2020,05,05,19,29,15.80
2020,05,05,19,30,15.70
2020,05,05,19,31,15.70
2020,05,05,19,32,15.60
2020,05,05,19,33,15.60
2020,05,05,19,34,15.60
2020,05,05,19,35,15.50
2020,05,05,19,36,15.50
2020,05,05,19,37,15.40
2020,05,05,19,38,15.40
2020,05,05,19,39,15.40